When you browse on this site, cookies collect data to enhance your experience and personalize the content and advertising you see.
Visit our Privacy Policy to learn more. By continuing to use the site, you agree to this use of cookies and data.
  • In Österreich
  • Länderverzeichnis
  • Für 7 Tage
  • Wassertemperatur
  • Satellitenkarten
  • Wetterkarte
  • News
  • Widgets
  • user-avatar
    Anmelden

    Stündliche Wetter Dinagepoor

    Heute, 26 Juni, Mittwoch

    Zeit Temperatur Niederschläge Wind Luftdruck Luftfeuchtigkeit
    00:00 +36°C° 0 mm 4 m/S 748 mmHg 54%
    01:00 +36°C° 0 mm 4 m/S 748 mmHg 56%
    02:00 +35°C° 0 mm 4 m/S 747 mmHg 59%
    03:00 +35°C° 0 mm 4 m/S 747 mmHg 61%
    04:00 +34°C° 0 mm 4 m/S 747 mmHg 63%
    05:00 +34°C° 0 mm 3 m/S 747 mmHg 65%
    06:00 +34°C° 0 mm 5 m/S 747 mmHg 69%
    07:00 +35°C° 0 mm 6 m/S 747 mmHg 66%
    08:00 +35°C° 0 mm 6 m/S 747 mmHg 64%
    09:00 +36°C° 0 mm 7 m/S 747 mmHg 61%
    10:00 +39°C° 0 mm 7 m/S 747 mmHg 53%
    11:00 +41°C° 0 mm 6 m/S 747 mmHg 45%
    12:00 +44°C° 0 mm 6 m/S 747 mmHg 38%
    13:00 +41°C° 0.4 mm 6 m/S 746 mmHg 44%
    14:00 +40°C° 0.4 mm 7 m/S 746 mmHg 49%
    15:00 +39°C° 0.4 mm 7 m/S 745 mmHg 55%
    16:00 +38°C° 0.9 mm 6 m/S 745 mmHg 59%
    17:00 +35°C° 0.9 mm 5 m/S 745 mmHg 62%
    18:00 +34°C° 0.9 mm 4 m/S 745 mmHg 66%
    19:00 +34°C° 0.3 mm 4 m/S 745 mmHg 69%
    20:00 +33°C° 0.3 mm 4 m/S 746 mmHg 72%
    21:00 +32°C° 0.3 mm 5 m/S 747 mmHg 75%
    22:00 +32°C° 0.1 mm 5 m/S 746 mmHg 75%
    23:00 +33°C° 0.1 mm 5 m/S 746 mmHg 74%

    Morgen, 27 Juni, Donnerstag

    Zeit Temperatur Niederschläge Wind Luftdruck Luftfeuchtigkeit
    00:00 +33°C° 0.1 mm 5 m/S 746 mmHg 74%
    01:00 +32°C° 0.4 mm 4 m/S 746 mmHg 75%
    02:00 +32°C° 0.4 mm 4 m/S 745 mmHg 77%
    03:00 +32°C° 0.4 mm 4 m/S 745 mmHg 79%
    04:00 +32°C° 0.5 mm 4 m/S 745 mmHg 79%
    05:00 +32°C° 0.5 mm 4 m/S 745 mmHg 78%
    06:00 +32°C° 0.5 mm 4 m/S 745 mmHg 77%
    07:00 +34°C° 0 mm 5 m/S 745 mmHg 69%
    08:00 +36°C° 0 mm 5 m/S 745 mmHg 62%
    09:00 +37°C° 0 mm 5 m/S 745 mmHg 54%
    10:00 +40°C° 0 mm 5 m/S 745 mmHg 49%
    11:00 +41°C° 0 mm 5 m/S 745 mmHg 44%
    12:00 +42°C° 0 mm 5 m/S 745 mmHg 39%
    13:00 +43°C° 0 mm 5 m/S 744 mmHg 37%
    14:00 +45°C° 0 mm 5 m/S 743 mmHg 35%
    15:00 +45°C° 0 mm 5 m/S 742 mmHg 33%
    16:00 +42°C° 0.2 mm 4 m/S 742 mmHg 39%
    17:00 +40°C° 0.2 mm 3 m/S 742 mmHg 45%
    18:00 +38°C° 0.2 mm 2 m/S 742 mmHg 50%
    19:00 +37°C° 0.3 mm 3 m/S 742 mmHg 55%
    20:00 +36°C° 0.3 mm 3 m/S 743 mmHg 60%
    21:00 +34°C° 0.3 mm 4 m/S 743 mmHg 64%
    22:00 +34°C° 0 mm 5 m/S 744 mmHg 67%
    23:00 +34°C° 0 mm 5 m/S 744 mmHg 70%

    übermorgen, 28 Juni, Freitag

    Zeit Temperatur Niederschläge Wind Luftdruck Luftfeuchtigkeit
    00:00 +33°C° 0 mm 6 m/S 744 mmHg 72%
    01:00 +33°C° 0 mm 5 m/S 744 mmHg 73%
    02:00 +33°C° 0 mm 4 m/S 744 mmHg 73%
    03:00 +33°C° 0 mm 4 m/S 743 mmHg 73%
    04:00 +33°C° 0 mm 4 m/S 743 mmHg 75%
    05:00 +33°C° 0 mm 3 m/S 743 mmHg 76%
    06:00 +33°C° 0 mm 3 m/S 743 mmHg 78%
    07:00 +34°C° 0 mm 3 m/S 744 mmHg 72%
    08:00 +35°C° 0 mm 3 m/S 744 mmHg 65%
    09:00 +37°C° 0 mm 4 m/S 745 mmHg 59%
    10:00 +38°C° 0 mm 4 m/S 745 mmHg 55%
    11:00 +39°C° 0 mm 3 m/S 744 mmHg 50%
    12:00 +40°C° 0 mm 3 m/S 744 mmHg 46%
    13:00 +42°C° 0 mm 3 m/S 744 mmHg 43%
    14:00 +43°C° 0 mm 3 m/S 743 mmHg 41%
    15:00 +43°C° 0 mm 3 m/S 743 mmHg 39%
    16:00 +42°C° 0 mm 4 m/S 742 mmHg 43%
    17:00 +41°C° 0 mm 5 m/S 742 mmHg 47%
    18:00 +40°C° 0 mm 6 m/S 742 mmHg 51%
    19:00 +38°C° 0.3 mm 6 m/S 742 mmHg 58%
    20:00 +35°C° 0.3 mm 6 m/S 743 mmHg 66%
    21:00 +33°C° 0.3 mm 6 m/S 744 mmHg 73%
    22:00 +33°C° 0.7 mm 5 m/S 744 mmHg 75%
    23:00 +32°C° 0.7 mm 5 m/S 744 mmHg 78%

    29 Juni, Samstag

    Zeit Temperatur Niederschläge Wind Luftdruck Luftfeuchtigkeit
    00:00 +32°C° 0.7 mm 5 m/S 745 mmHg 80%
    01:00 +30°C° 0.7 mm 4 m/S 744 mmHg 82%
    02:00 +30°C° 0.7 mm 4 m/S 744 mmHg 84%
    03:00 +30°C° 0.7 mm 4 m/S 744 mmHg 86%
    04:00 +29°C° 0.3 mm 5 m/S 744 mmHg 87%
    05:00 +29°C° 0.3 mm 5 m/S 744 mmHg 87%
    06:00 +29°C° 0.3 mm 5 m/S 744 mmHg 88%
    07:00 +30°C° 0.2 mm 5 m/S 745 mmHg 85%
    08:00 +32°C° 0.2 mm 5 m/S 745 mmHg 82%
    09:00 +32°C° 0.2 mm 5 m/S 745 mmHg 79%
    10:00 +34°C° 0 mm 5 m/S 745 mmHg 75%
    11:00 +35°C° 0 mm 5 m/S 745 mmHg 71%
    12:00 +36°C° 0 mm 5 m/S 744 mmHg 67%
    13:00 +37°C° 0 mm 5 m/S 744 mmHg 62%
    14:00 +39°C° 0 mm 5 m/S 743 mmHg 58%
    15:00 +41°C° 0 mm 5 m/S 743 mmHg 54%
    16:00 +40°C° 0 mm 6 m/S 742 mmHg 55%
    17:00 +39°C° 0 mm 6 m/S 742 mmHg 57%
    18:00 +39°C° 0 mm 6 m/S 742 mmHg 59%
    19:00 +38°C° 0 mm 7 m/S 743 mmHg 64%
    20:00 +36°C° 0 mm 7 m/S 743 mmHg 68%
    21:00 +35°C° 0 mm 7 m/S 744 mmHg 72%
    22:00 +33°C° 2.3 mm 6 m/S 744 mmHg 80%
    23:00 +32°C° 2.3 mm 6 m/S 744 mmHg 83%

    30 Juni, Sonntag

    Zeit Temperatur Niederschläge Wind Luftdruck Luftfeuchtigkeit
    00:00 +30°C° 2.3 mm 6 m/S 744 mmHg 86%
    01:00 +32°C° 0.9 mm 6 m/S 744 mmHg 85%
    02:00 +32°C° 0.9 mm 6 m/S 744 mmHg 84%
    03:00 +32°C° 0.9 mm 6 m/S 743 mmHg 83%
    04:00 +32°C° 0.6 mm 5 m/S 743 mmHg 83%
    05:00 +30°C° 0.6 mm 4 m/S 744 mmHg 83%
    06:00 +30°C° 0.6 mm 3 m/S 744 mmHg 83%
    07:00 +30°C° 0.7 mm 4 m/S 744 mmHg 79%
    08:00 +32°C° 0.7 mm 4 m/S 745 mmHg 75%
    09:00 +32°C° 0.7 mm 4 m/S 745 mmHg 71%
    10:00 +34°C° 0 mm 4 m/S 745 mmHg 64%
    11:00 +36°C° 0 mm 4 m/S 744 mmHg 57%
    12:00 +38°C° 0 mm 4 m/S 744 mmHg 50%
    13:00 +39°C° 0 mm 3 m/S 743 mmHg 49%
    14:00 +39°C° 0 mm 3 m/S 743 mmHg 47%
    15:00 +40°C° 0 mm 3 m/S 742 mmHg 45%
    16:00 +40°C° 0 mm 3 m/S 742 mmHg 47%
    17:00 +40°C° 0 mm 3 m/S 742 mmHg 49%
    18:00 +40°C° 0 mm 4 m/S 741 mmHg 51%
    19:00 +38°C° 0.2 mm 4 m/S 742 mmHg 56%
    20:00 +37°C° 0.2 mm 4 m/S 742 mmHg 61%
    21:00 +35°C° 0.2 mm 5 m/S 743 mmHg 65%
    22:00 +35°C° 1 mm 4 m/S 743 mmHg 69%
    23:00 +34°C° 1 mm 4 m/S 744 mmHg 72%

    1 Juli, Montag

    Zeit Temperatur Niederschläge Wind Luftdruck Luftfeuchtigkeit
    00:00 +33°C° 1 mm 3 m/S 744 mmHg 76%
    01:00 +33°C° 3.8 mm 3 m/S 744 mmHg 79%
    02:00 +31°C° 3.8 mm 3 m/S 743 mmHg 82%
    03:00 +30°C° 3.8 mm 2 m/S 743 mmHg 85%
    04:00 +30°C° 1 mm 3 m/S 743 mmHg 85%
    05:00 +30°C° 1 mm 3 m/S 744 mmHg 86%
    06:00 +30°C° 1 mm 3 m/S 744 mmHg 86%
    07:00 +31°C° 0.4 mm 3 m/S 744 mmHg 82%
    08:00 +32°C° 0.4 mm 4 m/S 745 mmHg 79%
    09:00 +33°C° 0.4 mm 4 m/S 745 mmHg 75%
    10:00 +33°C° 0.1 mm 4 m/S 745 mmHg 75%
    11:00 +33°C° 0.1 mm 3 m/S 745 mmHg 75%
    12:00 +33°C° 0.1 mm 3 m/S 745 mmHg 75%
    13:00 +33°C° 0 mm 3 m/S 744 mmHg 71%
    14:00 +34°C° 0 mm 3 m/S 744 mmHg 67%
    15:00 +35°C° 0 mm 2 m/S 743 mmHg 63%
    16:00 +35°C° 0 mm 2 m/S 743 mmHg 62%
    17:00 +35°C° 0 mm 3 m/S 743 mmHg 62%
    18:00 +35°C° 0 mm 3 m/S 743 mmHg 62%
    19:00 +34°C° 0 mm 3 m/S 743 mmHg 66%
    20:00 +34°C° 0 mm 3 m/S 744 mmHg 71%
    21:00 +33°C° 0 mm 3 m/S 744 mmHg 75%
    22:00 +33°C° 0.1 mm 3 m/S 744 mmHg 77%
    23:00 +31°C° 0.1 mm 3 m/S 744 mmHg 79%
    Mehr zeigen